Regional Weather Roundup
Issued by NWS Wakefield, VA

Home | Current Version | Previous Version | Graphics & Text | Print | Product List | Glossary On
Versions: 1 2 3 4 5 6 7 8 9 10 11 12 13 14 15 16 17 18 19 20 21 22 23 24 25 26 27 28 29 30 31 32 33 34 35 36 37 38 39 40 41 42 43 44 45 46 47 48 49 50
000
ASUS41 KAKQ 191510
RWRAKQ

REGIONAL WEATHER ROUNDUP
NATIONAL WEATHER SERVICE WAKEFIELD VA
1100 AM EDT TUE AUG 19 2014

Note: "fair" indicates few or no clouds below 12,000 feet with no
significant weather and/or obstructions to visibility. * = Denotes
station may not report precipitation (e.g., rain,snow,etc.),
thunder or fog.

VAZ042-051-052>054-056-191600-
NORTHERN VIRGINIA

CITY           SKY/WX    TMP DP  RH WIND       PRES   REMARKS
WASH NATIONAL  LGT RAIN  77  68  73 E8        29.88R
DULLES         CLOUDY    75  68  78 E6        29.89R
FORT BELVOIR   CLOUDY    75  69  82 CALM      29.88R
QUANTICO       CLOUDY    76  70  82 NE7       29.88R
FREDERICKSBRG*   N/A     77  73  85 N3        29.86S
STAFFORD*      CLOUDY    76  75  98 NE3       29.92R
WARRENTON      CLOUDY    76  73  92 N5        29.89R
CULPEPER*      CLOUDY   N/A N/A N/A N6        29.89S
MANASSAS*      NOT AVBL
LEESBURG*      CLOUDY    75  70  83 E5        29.90S
WINCHESTER     CLOUDY    73  68  83 E5        29.90S
$$

VAZ048-049-060>072-079>083-191600-
CENTRAL AND SOUTH CENTRAL VIRGINIA...AND NORTH CENTRAL NORTH CAROLINA

CITY           SKY/WX    TMP DP  RH WIND       PRES   REMARKS
RICHMOND       PTSUNNY   79  70  74 N7        29.86R
CHESTERFIELD*  PTSUNNY   79  63  57 NE8       29.87R
HANOVER        PTSUNNY   78  69  73 NE5       29.87S
TAPPAHANNOCK*  CLOUDY    78  70  76 N6        29.86R
CHARLOTTSVILLE CLOUDY    75  69  81 N7        29.89R HAZE
ORANGE*        CLOUDY    73  68  83 N3        29.90S
LOUISA*        CLOUDY    73  70  88 N5        29.87S
FARMVILLE*     CLOUDY    75  73  94 CALM      29.86R
SOUTH HILL*    CLOUDY    79  75  89 N8        29.91R
ROANOKE RAPIDS CLOUDY    77  72  83 N6        29.84S
RALEIGH        PTSUNNY   78  71  79 VRB3      29.87R
$$

VAZ088>098-191600-
SOUTHEAST VIRGINIA

CITY           SKY/WX    TMP DP  RH WIND       PRES   REMARKS
NORFOLK        CLOUDY    76  71  85 CALM      29.82R
VIRGINIA BEACH CLOUDY    77  72  84 NW5       29.81R
NORFOLK NAVAL  CLOUDY    77  72  84 W5        29.83S
WEST POINT*    CLOUDY    79  73  83 N3        29.85S
NEWPORT NEWS   CLOUDY    80  73  79 NE7       29.83R
LANGLEY AFB    CLOUDY    75  75 100 NE8       29.82R FOG
FORT EUSTIS    CLOUDY    75  75 100 N6        29.81S
WILLIAMSBURG*  MOSUNNY   79  75  89 CALM      29.84S
FRANKLIN*      CLOUDY    75  73  94 N3        29.83R
WAKEFIELD      CLOUDY    77  72  84 N3        29.84R
$$

VAZ020-022-025-037-045-191600-
WESTERN AND SOUTHWEST VIRGINIA

CITY           SKY/WX    TMP DP  RH WIND       PRES   REMARKS
STAUNTON*      CLOUDY    75  67  74 E3        29.93S
HOT SPRINGS VA NOT AVBL
LYNCHBURG      CLOUDY    75  69  81 E5        29.91R
DANVILLE       PTSUNNY   77  69  76 E5        29.89S
MARTINSVILLE   MOSUNNY   81  70  69 CALM      29.91F
ROANOKE        CLOUDY    75  69  81 NE3       29.93R
BLACKSBURG     PTSUNNY   73  72  94 W5        29.97S
DUBLIN*        CLOUDY    74  68  81 CALM      29.97R
MARION*        PTSUNNY   73  69  85 W8        30.01R
HILLSVILLE*    MOSUNNY   73  66  79 NW8       29.99R
RICHLANDS*     CLOUDY    73  69  86 W5        30.00R
WISE*          PTSUNNY   73  68  83 SW7       30.01S
ABINGDON*      CLOUDY    74  70  85 W6        29.98R
$$

MDZ021>025-VAZ099-100-191600-
SOUTHERN MARYLAND AND THE DELMARVA PENINSULA

CITY           SKY/WX    TMP DP  RH WIND       PRES   REMARKS
PATUXENT RIVER CLOUDY    76  71  85 E13       29.86R
BAY BRIDGE APT   N/A     77  66  69 E7        29.88R
LEONARDTOWN    CLOUDY    73  70  88 E9        29.87S
DOVER          SUNNY     79  67  66 E9        29.87R
GEORGETOWN     MOSUNNY   80  67  64 E14G23    29.88R
EASTON         PTSUNNY   81  66  61 E9        29.90R
CAMBRIDGE      MOSUNNY   79  64  61 E10       29.86S
SALISBURY      PTSUNNY   79  68  69 E12       29.87R
OCEAN CITY     PTSUNNY   77  69  76 E13       29.86S
WALLOPS ISLAND CLOUDY    75  71  87 E13       29.85R
ACCOMACK*      RAIN      77  72  83 SE5       29.83R
$$

NCZ012>017-030>032-191600-
EASTERN NORTH CAROLINA

CITY           SKY/WX    TMP DP  RH WIND       PRES   REMARKS
ELIZABETH CITY CLOUDY    77  72  84 W9        29.83R
AHOSKIE*       CLOUDY    74  70  87 NW5       29.84R
EDENTON*       CLOUDY    77  73  87 W9        29.84R
CURRITUCK*     CLOUDY    78  70  78 W5        29.83R
KILL DEVIL HLS CLOUDY    77  73  85 W5        29.81S
MANTEO         CLOUDY    79  72  78 W5        29.82S
CAPE HATTERAS  SUNNY     82  75  79 W10       29.83R
GOLDSBORO      MOSUNNY   80  76  85 NW9       29.83S
WASHINGTON     PTSUNNY   75  71  87 NW5       29.85R
GREENVILLE     CLOUDY    77  72  83 W5        29.87S
NEW BERN       SUNNY     85  74  69 W6        29.85R
WILMINGTON     SUNNY     86  74  67 VRB6      29.86R
$$

VAZ048-191600-
ELSEWHERE

CITY           SKY/WX    TMP DP  RH WIND       PRES   REMARKS
HARRISBURG PA  PTSUNNY   77  61  57 S3        29.90R
BALTIMORE      PTSUNNY   75  67  76 E8        29.89R
ANNAPOLIS      CLOUDY    75  68  78 E5        29.88R
ANDREWS AFB    DRIZZLE   73  71  94 NE8       29.88R
WILMINGTON DE  SUNNY     78  64  61 VRB5      29.90R
PHILADELPHIA   MOSUNNY   79  64  60 E5        29.90R
WILDWOOD NJ*   PTSUNNY   75  63  64 SE13      29.90R
ATLANTIC CITY  MOSUNNY   77  65  66 SE10      29.90R
HENDERSON NC   CLOUDY    74  70  86 N6        29.88R
GREENSBORO     PTSUNNY   81  71  71 NW6       29.89R
ROCKY MOUNT    CLOUDY    78  72  81 CALM      29.85R
FAYETTEVILLE   SUNNY     85  70  60 W5        29.86R
CHARLOTTE      MOSUNNY   83  68  60 NW3       29.89S
$$

VAZ100-191600-
MARINE

STATION/POSITION TIME  TEMP    WIND        PRES    WAVE   SWELL
                       AIR SEA DIR/SP/G            HT/PER HT/PER
                 (UTC) (F)     (DEG/KT/KT) (MB)    (FT/S) (FT/S)
44066 TX TWR #4  1500   73 73  120/ 10/ 12 1012.5R   2/ 9   2/ 9
CAPE MAY NJ      1500   74 79  110/ 11/ 14 1011.4S
LEWES DE         1500   75 75  110/ 10/ 14 1011.4R
15NM E FENWICK I 1500   75 75              1011.1R   4/ 5
OCEAN-CITY-INLET 1500   76 75  100/  8/ 12 1010.9R
WACHAPREAGUE VA  1500   78 79  100/  8/ 13 1009.8R
THOMAS POINT MD  1500   75 77   80/ 11/ 12 1012.3R
GOOSES REEF MD   1500   75     130/ 16/ 19 1011.4R
COVE POINT MD    1500   74     110/ 13/ 17 1010.9R
SOLOMONS ISLAND  1500      79                N/A
BISHOPS HEAD MD  1500   75 77   80/ 12/ 18 1010.4R
PINEY POINT MD   1500          100/  9/ 11   N/A
POTOMAC MD       1500   76     110/ 14/ 16 1009.7R
CAMBRIDGE MD     1500   77 78  100/ 10/ 16 1010.8S
LEWISETTA VA     1500   76 78  100/ 15/ 17 1010.1S
RAPPAHANNOCK LGT 1500           40/  5/  6 1010.4S
STINGRAY PT      1500   76      70/  4/  6 1010.9R
YORK RVR RNG VA  1500   76     100/  8/  9 1009.3S
YORKTOWN VA      1500   76 79   70/  8/ 12 1009.6R
JAMESTOWN VA     1500   75      50/  4/  8   N/A
DOMINION TERM VA 1500   75     310/  6/  7 1009.7S
KIPTOPEKE VA     1500      81   80/  5/  7   N/A
CHES BAY BRIDGE  1500   75 78  230/  4/  6 1009.1S
CAPE HENRY VA    1500   76     240/  3/  4 1008.4S
CHESAPEAKE LGHT  1400   77     260/  7/  8 1009.8R
WILLOUBY STN VA  1500   75     300/  4/  5 1008.5S
S CRANEY ISL VA  1500          320/  2/  4 1009.4S
CAPE HENRY BUOY  1500      78                N/A     2/ 5
1ST LANDING BUOY 1500   76     250/  4/  6 1009.4S
CAPE CHARLES BUO 1500      76                N/A     2/ 5   2/ 5
OFFSHORE WE BUOY 1500      76                N/A     2/ 6   2/ 6
64NM E OF VA BCH 1500   77 78  260/  8/ 10 1009.3R   3/ 6   2/ 6
DUCK PIER NC     1500   77 78  250/  6/  7 1009.1R
44056 DUCK FRF   1500                        N/A     1/ 5
OREGON INLET NC  1500   78 80  240/  6/  7 1009.9R
HATTERAS NC      1500   81 80  270/ 10/ 12 1010.5R
DIAMOND SHLS NC  1500   80     230/ 14/ 14 1010.0R   4/ 6   2/ 6
CAPE LOOKOUT NC  1400   80     270/ 10/ 12 1010.2R
$$


USA.gov is the U.S. government's official web portal to all federal, state and local government web resources and services.